EHI
0 0 0 0 0 0 0 0 0 0 0 0 0 0 0 0 0 0 0 1 2 3 1 0 0 0 0 0 0 0 0 0 0 0 0 0 0 0 0 0 0 0 0 0
0 0 0 0 0 0 0 0 0 0 0 0 0 0 0 0 0 0 0 1 2 3 2 0 0 0 0 0 0 0 0 0 0 0 0 0 0 0 0 0 0 0 0 0
0 0 0 0 0 0 0 0 0 0 0 0 0 0 0 0 0 0 0 0 1 2 1 0 0 0 0 0 0 0 0 0 0 0 0 0 0 0 0 0 0 0 0 0
0 0 0 0 0 0 0 0 0 0 0 0 0 0 0 0 0 0 0 0 1 1 1 0 0 0 0 0 0 0 0 0 0 0 0 0 0 0 0 0 0 0 0 0
0 0 0 0 0 0 0 0 0 0 0 0 0 0 0 0 0 0 0 0 0 0 0 0 0 0 0 0 0 0 0 0 0 0 0 0 0 0 0 0 0 0 0 0
0 0 0 0 0 0 0 0 0 0 0 0 0 0 0 0 0 0 0 0 0 0 1 2 1 0 0 0 0 0 0 0 0 0 0 0 0 0 0 0 0 0 0 0
0 0 0 0 0 0 0 0 0 0 0 0 0 0 0 0 0 0 0 0 0 0 2 3 2 1 0 0 0 0 0 0 0 0 0 0 0 0 0 0 0 0 0 0
0 0 0 0 0 0 0 0 0 0 0 0 0 0 0 0 0 0 0 0 0 0 1 2 3 2 1 0 0 0 0 0 0 0 0 0 0 0 0 0 0 0 0 0
0 0 0 0 0 0 0 0 0 0 0 0 0 0 0 0 0 0 0 0 0 0 0 1 2 2 1 0 0 0 0 0 0 0 0 0 0 0 0 0 0 0 0 0
0 0 0 0 0 0 0 0 0 0 0 0 0 0 0 0 0 0 0 0 0 0 0 0 1 1 1 0 0 0 0 0 0 0 0 0 0 0 0 0 0 0 0 0
0 0 0 0 0 0 0 0 0 0 0 0 0 0 0 0 0 0 0 0 0 0 0 0 0 0 0 0 0 0 0 0 0 0 0 0 0 0 0 0 0 0 0 0
0 0 0 0 0 0 0 0 0 0 0 0 0 0 0 0 0 0 0 0 0 0 0 0 0 0 0 0 1 1 1 1 0 0 0 0 0 0 0 0 0 0 0 0
0 0 0 0 0 0 0 0 0 0 0 0 0 0 0 0 0 0 0 0 0 0 0 0 0 0 0 0 0 1 1 1 0 0 0 0 0 0 0 0 0 0 0 0
0 0 0 0 0 0 0 0 0 0 0 0 0 0 0 0 0 0 0 0 0 0 0 0 0 0 0 0 0 0 1 1 0 0 0 0 0 0 0 0 0 0 0 0
0 0 0 0 0 0 0 0 0 0 0 0 0 0 0 0 0 0 0 0 0 0 0 0 0 0 0 0 0 0 0 0 0 0 0 0 0 0 0 0 0 0 0 0
0 0 0 0 0 0 0 0 0 0 0 0 0 0 0 0 0 0 0 0 0 0 0 0 0 0 0 0 0 0 0 0 0 0 0 0 0 0 0 0 0 0 0 0
0 0 0 0 0 0 0 0 0 0 0 0 0 0 0 0 0 0 0 0 0 0 0 0 0 0 0 0 0 0 0 0 0 0 0 0 0 0 0 0 0 0 0 0
0 0 0 0 0 0 0 0 0 0 0 0 0 0 0 0 0 0 0 0 0 0 0 0 0 0 0 0 0 0 1 1 1 0 0 0 0 0 0 0 0 0 0 0
0 0 0 0 0 0 0 0 0 0 0 0 0 0 0 0 0 0 0 0 0 0 0 0 0 0 0 0 0 0 1 2 1 0 0 0 0 0 0 0 0 0 0 0
0 0 0 0 0 0 0 0 0 0 0 0 0 0 0 0 0 0 0 0 0 0 0 0 0 0 0 0 0 0 1 1 0 0 0 0 0 0 0 0 0 0 0 0
0 0 0 0 0 0 0 0 0 0 0 0 0 0 0 0 0 0 0 0 0 0 0 0 0 0 0 0 0 0 0 0 0 0 0 0 0 0 0 0 0 0 0 0
0 0 0 0 0 0 0 0 0 0 0 0 0 0 0 0 0 0 0 0 0 0 0 0 0 0 0 0 0 0 0 0 0 0 0 0 0 0 0 0 0 0 0 0
0 0 0 0 0 0 0 0 0 0 0 0 0 0 0 0 0 0 0 0 0 0 0 0 0 0 0 0 0 0 0 0 0 0 0 0 0 0 0 0 0 0 0 0
0 0 0 0 0 0 0 0 0 0 0 0 0 0 0 0 0 0 0 0 0 0 0 0 0 0 0 0 0 0 0 0 0 0 0 0 0 0 0 0 0 0 0 0
0 0 0 0 0 0 0 0 0 0 0 0 0 0 0 0 0 0 0 0 0 0 0 0 0 0 0 0 0 0 0 0 0 0 0 0 0 0 0 0 0 0 0 0
0 0 0 0 0 0 0 0 0 0 0 0 0 0 0 0 0 0 0 0 0 0 0 0 0 0 0 0 0 0 0 0 0 0 0 0 0 0 0 0 0 0 0 0
0 0 0 0 0 0 0 0 0 0 0 0 0 0 0 0 0 0 0 0 0 0 0 0 0 0 0 0 0 0 0 0 0 0 0 0 0 0 0 0 0 0 0 0
Wind_Speed
6 5 5 7 8 10 11 9 8 6 7 6 4 3 2 2 4 5 7 9 10 10 10 11 11 11 11 11 11 11 11 10 10 9 8 7 7 6 5 5 4 4 3 3
8 7 8 9 10 11 11 11 10 9 8 6 4 3 4 4 4 6 8 9 10 10 11 11 12 11 11 11 11 11 11 10 9 9 8 8 7 7 6 5 5 4 4 3
7 6 8 11 10 11 10 10 10 9 6 4 4 4 4 4 5 6 7 8 10 10 10 11 11 11 11 11 11 11 11 10 10 9 9 9 8 7 7 6 6 5 5 4
6 7 11 4 2 7 9 9 9 9 8 6 5 4 4 4 5 5 6 7 9 9 10 10 10 11 10 11 11 11 11 10 10 10 10 9 8 8 8 7 6 5 5 5
7 9 9 6 5 7 8 8 7 9 8 6 3 4 4 3 3 4 5 6 7 9 9 10 11 11 11 11 11 10 10 10 10 10 10 9 9 9 7 6 6 5 5 4
8 9 9 5 3 4 7 8 4 6 5 4 5 5 2 2 2 2 3 4 6 7 9 10 10 11 11 11 11 10 10 10 10 10 10 10 9 8 7 6 6 5 5 4
11 10 8 3 3 6 8 2 2 3 4 4 5 3 0 2 2 2 2 3 5 7 8 9 10 11 11 10 10 10 9 9 9 10 10 9 8 7 7 6 6 5 5 5
10 11 9 4 6 7 3 2 1 2 3 4 4 2 2 2 2 2 3 4 5 6 7 8 10 11 11 10 9 9 9 9 9 9 8 8 8 7 7 7 6 6 5 5
8 6 0 4 5 3 3 3 2 2 2 3 3 3 3 3 2 3 3 4 5 6 6 7 9 10 10 9 9 9 10 10 9 9 8 8 8 8 7 6 6 5 5 4
9 7 5 5 5 4 4 4 3 3 2 3 3 3 3 2 2 3 3 4 5 6 7 7 8 9 9 9 10 10 10 10 9 9 8 8 6 6 6 6 6 5 5 5
10 7 6 7 6 4 4 3 3 2 2 2 2 3 3 2 3 3 3 4 5 6 6 7 8 8 8 9 10 11 10 9 9 8 8 7 6 4 5 4 4 5 5 4
9 8 7 7 5 5 5 4 3 3 2 2 3 3 3 3 3 3 4 4 5 5 6 7 8 8 8 9 10 10 9 9 7 7 7 6 6 5 3 1 3 2 1 2
9 6 7 6 6 6 6 5 4 4 3 3 3 3 3 3 3 3 4 5 5 6 6 7 8 8 8 9 10 10 9 8 7 7 7 7 6 6 5 4 4 3 3 3
7 6 7 7 6 5 5 4 4 3 3 3 3 2 3 3 3 3 4 5 5 5 5 6 7 7 8 9 9 9 8 7 7 7 7 6 6 6 5 5 5 4 4 5
7 7 6 5 4 5 4 4 3 3 3 3 3 3 4 4 4 4 4 4 5 5 6 6 6 7 7 9 9 9 7 6 6 6 6 6 6 6 5 6 4 4 4 4
6 5 5 5 5 5 5 5 4 4 4 3 4 4 5 5 4 4 4 5 6 6 6 6 7 7 7 9 9 7 6 7 7 6 6 6 6 6 6 6 5 4 4 4
7 7 7 7 6 5 5 5 5 5 5 4 4 4 4 4 4 4 4 5 5 5 5 6 6 7 8 9 8 6 6 7 8 7 6 6 6 6 6 6 5 5 4 4
7 7 7 7 6 6 6 6 5 5 5 5 4 4 5 6 6 5 5 5 5 5 5 5 5 6 7 8 7 6 6 7 7 6 6 6 6 6 5 5 5 5 4 5
4 4 4 5 5 5 5 5 5 5 4 4 5 5 6 6 5 5 5 5 6 6 5 5 6 7 7 7 6 6 6 7 7 6 6 6 6 6 5 5 5 5 5 4
3 2 3 3 3 4 4 4 4 4 4 4 5 5 5 4 4 5 6 5 4 3 4 5 6 6 6 7 7 6 6 7 7 6 6 6 6 6 5 5 5 5 5 4
2 2 2 2 3 3 4 4 3 4 4 5 5 5 5 4 4 5 5 4 3 4 4 6 5 5 5 6 7 5 6 6 6 6 6 6 6 6 6 5 5 5 4 4
2 2 3 3 3 3 3 3 3 3 3 4 4 4 4 5 5 4 4 3 3 4 4 4 4 5 6 7 6 6 6 6 6 5 5 6 6 6 5 5 5 4 4 4
2 2 2 3 3 3 2 2 2 2 3 3 4 5 5 4 4 4 3 3 3 5 4 4 5 8 8 5 5 6 6 6 6 5 5 5 5 5 5 5 5 5 4 4
2 2 2 2 2 2 2 2 1 1 2 2 3 3 4 3 2 2 1 3 4 5 3 5 8 9 7 4 5 5 5 5 5 5 5 5 5 5 4 5 4 4 4 5
3 2 2 2 2 2 2 1 1 1 1 1 1 2 2 2 2 2 3 4 5 5 4 6 9 8 5 4 4 4 4 4 4 4 4 4 4 4 4 4 4 4 4 4
3 2 2 3 2 2 1 1 1 2 1 1 1 1 1 1 2 3 3 4 5 4 4 4 5 6 4 4 4 4 4 5 5 4 4 4 5 5 4 4 5 4 4 4
3 2 2 2 1 1 1 2 2 2 2 2 2 2 2 2 3 4 4 4 4 4 3 3 4 4 4 4 4 4 3 3 3 4 4 4 4 4 5 5 4 3 3 4
Wind_Direction
252 255 237 235 227 218 227 243 259 267 274 279 276 271 239 209 188 181 181 185 186 186 185 186 189 190 190 190 187 183 184 187 190 188 186 186 181 180 176 174 178 173 169 170
233 232 238 245 237 228 232 241 249 259 270 275 275 257 233 221 204 197 196 195 193 192 189 191 190 189 188 189 187 185 187 189 187 188 185 187 185 182 178 178 183 180 184 182
238 224 236 242 235 229 228 231 239 252 265 272 260 249 244 234 221 213 205 200 198 198 195 195 193 188 188 189 185 188 190 187 184 186 186 190 186 182 182 185 187 190 195 193
245 231 241 254 213 231 237 240 240 253 263 259 262 264 252 241 229 217 205 200 200 199 195 192 188 185 184 182 184 188 189 186 184 185 187 190 188 187 192 194 188 196 199 200
235 243 252 248 217 217 230 247 242 244 252 251 243 224 207 202 231 230 216 205 199 197 192 187 183 180 179 181 184 188 189 188 185 186 186 187 189 191 193 193 192 196 198 199
229 240 245 236 185 214 235 243 222 233 237 231 218 229 190 148 201 216 209 200 193 186 185 183 179 176 178 181 184 189 190 190 186 185 185 188 190 188 184 186 192 195 195 203
229 240 250 244 171 192 226 234 150 217 225 219 227 267 106 164 181 187 182 182 181 178 180 181 174 174 181 183 189 188 183 182 180 180 183 185 186 184 184 185 188 196 197 200
221 234 238 175 186 217 278 6 238 232 231 229 240 248 214 188 170 164 160 166 174 174 175 174 172 176 182 186 185 175 170 173 176 177 178 179 180 183 187 185 188 195 202 202
221 233 299 190 219 256 292 275 268 270 256 237 238 232 217 204 179 163 163 165 171 171 171 172 174 181 184 180 173 168 168 171 174 174 176 178 179 181 183 187 194 199 203 206
229 232 231 231 243 248 263 270 273 271 260 240 235 228 215 200 179 168 164 166 170 170 174 174 176 183 184 173 170 169 170 171 171 173 174 176 178 184 186 190 195 200 203 206
230 232 230 233 242 250 264 266 271 275 256 248 242 237 226 212 193 182 168 170 176 178 180 179 176 178 178 174 172 173 172 169 170 170 168 170 171 176 191 194 201 203 202 204
233 229 237 240 242 248 249 258 266 268 275 270 247 236 233 223 209 197 183 176 178 181 184 181 176 176 174 174 175 174 171 170 169 167 168 169 166 155 92 126 124 155 184 218
252 252 252 253 250 248 251 257 265 264 263 267 258 234 226 218 206 201 189 181 182 183 185 180 174 175 174 173 177 179 175 170 168 171 171 173 174 173 163 137 121 141 160 163
251 251 250 248 253 257 259 264 270 264 263 257 241 226 218 208 197 199 197 188 185 181 181 177 175 176 173 172 175 180 176 168 169 172 174 177 179 180 179 174 169 159 153 160
247 249 251 251 251 253 254 252 255 259 260 254 231 212 207 207 207 207 196 183 182 180 179 179 178 174 172 173 174 175 172 170 171 169 172 174 176 177 179 181 179 169 157 148
248 248 241 231 235 243 247 246 250 255 256 252 241 228 217 211 205 197 184 180 183 187 185 184 180 172 172 174 172 172 168 161 166 168 170 171 174 177 179 179 180 181 180 165
236 235 231 231 236 244 252 254 255 253 248 244 244 233 216 203 195 194 189 187 188 187 185 182 176 168 175 178 175 173 167 162 167 172 174 176 178 182 182 181 182 181 180 163
236 238 237 233 233 240 251 255 252 252 249 246 232 216 209 203 201 198 188 180 178 182 182 176 166 167 177 180 178 175 171 169 176 178 176 178 181 183 184 183 181 179 169 161
234 234 240 244 243 243 246 252 252 250 245 230 215 216 218 216 204 192 183 183 184 188 186 171 160 173 175 174 171 173 172 171 173 175 175 170 178 182 182 180 178 177 171 169
248 252 253 258 253 249 249 250 252 249 237 221 215 214 214 210 195 187 188 193 200 194 176 167 169 175 174 169 169 176 174 175 175 174 175 177 180 181 181 179 178 177 177 177
254 263 269 269 271 270 265 256 245 238 228 215 211 209 206 199 192 190 187 191 193 174 166 162 171 170 170 164 172 180 178 177 177 177 177 179 180 180 180 179 178 178 179 177
270 279 281 278 280 286 287 270 243 226 214 206 204 200 192 188 189 195 202 201 177 162 169 175 175 162 160 164 176 178 178 178 178 177 178 180 179 179 179 176 176 176 177 177
287 281 273 269 271 279 280 261 232 206 198 200 201 197 194 191 188 185 194 189 173 165 172 174 159 152 159 171 174 175 175 176 177 176 177 178 178 178 176 175 175 174 174 176
291 286 279 275 268 259 252 254 243 217 203 205 208 204 194 183 185 200 190 154 154 159 169 153 150 155 164 174 170 171 172 172 173 172 171 171 172 173 174 173 172 172 172 174
292 281 268 255 251 253 247 228 206 194 186 194 206 207 203 202 188 166 163 164 156 158 159 155 154 159 169 170 167 168 168 167 165 165 167 166 168 170 170 171 172 172 170 172
292 279 268 258 262 253 226 199 195 193 189 190 202 200 185 171 157 150 152 156 152 151 153 153 157 163 168 163 163 163 161 157 158 162 166 167 166 166 167 168 171 172 168 167
286 281 273 273 279 249 223 214 209 207 204 199 193 186 173 162 156 154 151 150 149 150 147 149 154 160 160 158 160 159 157 157 160 161 162 165 165 165 165 165 163 162 162 165